| time (UTC) | temp F | wind direction | speed knots | gust knots | rain 1hr in | rain 24hr in | rain mn in | humidity % | barometer mb |
| 20260505004603 | 56 | 203 | 12.2 | 18.2 | 0.00 | 0.00 | 0.00 | 89 | 1012.9 |
| 20260505004104 | 56 | 195 | 9.6 | 15.6 | 0.00 | 0.00 | 0.00 | 90 | 1012.9 |
| 20260505003625 | 56 | 192 | 8.7 | 19.1 | 0.00 | 0.00 | 0.00 | 90 | 1012.8 |
| 20260505003125 | 56 | 190 | 10.4 | 19.1 | 0.00 | 0.00 | 0.00 | 90 | 1012.8 |
| 20260505002625 | 56 | 194 | 12.2 | 15.6 | 0.00 | 0.00 | 0.00 | 91 | 1012.8 |
| 20260505002103 | 56 | 194 | 9.6 | 14.8 | 0.00 | 0.00 | 0.00 | 91 | 1012.7 |
| 20260505001604 | 56 | 190 | 8.7 | 15.6 | 0.00 | 0.00 | 0.00 | 90 | 1012.7 |
| 20260505001104 | 56 | 194 | 9.6 | 15.6 | 0.00 | 0.00 | 0.00 | 90 | 1012.7 |
| 20260505000604 | 56 | 194 | 10.4 | 17.4 | 0.00 | 0.00 | 0.00 | 90 | 1012.5 |
| 20260505000124 | 56 | 190 | 11.3 | 17.4 | 0.00 | 0.00 | 0.00 | 90 | 1012.6 |
| 20260504235604 | 56 | 196 | 10.4 | 17.4 | 0.00 | 0.00 | 0.00 | 90 | 1012.6 |
| 20260504235103 | 56 | 198 | 7.8 | 13.9 | 0.00 | 0.00 | 0.00 | 90 | 1012.6 |
| 20260504234604 | 56 | 192 | 7.8 | 13.9 | 0.00 | 0.00 | 0.00 | 89 | 1012.6 |
| 20260504234103 | 56 | 190 | 9.6 | 13.9 | 0.00 | 0.00 | 0.00 | 89 | 1012.6 |
| 20260504233604 | 56 | 186 | 9.6 | 15.6 | 0.00 | 0.00 | 0.00 | 89 | 1012.6 |
| 20260504233103 | 57 | 192 | 9.6 | 15.6 | 0.00 | 0.00 | 0.00 | 88 | 1012.6 |
| 20260504232626 | 57 | 192 | 9.6 | 15.6 | 0.00 | 0.00 | 0.00 | 88 | 1012.5 |
| 20260504232125 | 57 | 188 | 10.4 | 13.9 | 0.00 | 0.00 | 0.00 | 88 | 1012.5 |
| 20260504231604 | 57 | 191 | 7.8 | 14.8 | 0.00 | 0.00 | 0.00 | 87 | 1012.6 |
| 20260504231104 | 58 | 193 | 9.6 | 14.8 | 0.00 | 0.00 | 0.00 | 87 | 1012.5 |
| 20260504230624 | 58 | 193 | 8.7 | 15.6 | 0.00 | 0.00 | 0.00 | 86 | 1012.5 |
| 20260504230104 | 58 | 191 | 10.4 | 15.6 | 0.00 | 0.00 | 0.00 | 86 | 1012.5 |
| 20260504225604 | 58 | 189 | 9.6 | 15.6 | 0.00 | 0.00 | 0.00 | 86 | 1012.5 |
| 20260504225103 | 59 | 191 | 10.4 | 16.5 | 0.00 | 0.00 | 0.00 | 85 | 1012.6 |
| 20260504224604 | 59 | 190 | 9.6 | 16.5 | 0.00 | 0.00 | 0.00 | 85 | 1012.6 |
| 20260504224103 | 59 | 189 | 10.4 | 14.8 | 0.00 | 0.00 | 0.00 | 85 | 1012.5 |
| 20260504223625 | 59 | 194 | 10.4 | 15.6 | 0.00 | 0.00 | 0.00 | 85 | 1012.6 |
| 20260504223104 | 59 | 186 | 10.4 | 17.4 | 0.00 | 0.00 | 0.00 | 85 | 1012.6 |
| 20260504222604 | 59 | 196 | 12.2 | 17.4 | 0.00 | 0.00 | 0.00 | 85 | 1012.6 |
| 20260504222103 | 59 | 188 | 9.6 | 18.2 | 0.00 | 0.00 | 0.00 | 85 | 1012.6 |
| 20260504221604 | 59 | 196 | 11.3 | 18.2 | 0.00 | 0.00 | 0.00 | 84 | 1012.5 |
| 20260504221104 | 59 | 190 | 10.4 | 16.5 | 0.00 | 0.00 | 0.00 | 84 | 1012.5 |
| 20260504220604 | 59 | 192 | 11.3 | 16.5 | 0.00 | 0.00 | 0.00 | 84 | 1012.5 |
| 20260504220104 | 60 | 188 | 11.3 | 15.6 | 0.00 | 0.00 | 0.00 | 84 | 1012.5 |
| 20260504215603 | 60 | 184 | 9.6 | 16.5 | 0.00 | 0.00 | 0.00 | 85 | 1012.5 |
| 20260504215104 | 59 | 189 | 11.3 | 16.5 | 0.00 | 0.00 | 0.00 | 84 | 1012.5 |
| 20260504214604 | 59 | 187 | 10.4 | 16.5 | 0.00 | 0.00 | 0.00 | 85 | 1012.4 |
| 20260504214103 | 59 | 183 | 9.6 | 19.1 | 0.00 | 0.00 | 0.00 | 85 | 1012.5 |
| 20260504213604 | 59 | 179 | 11.3 | 20.0 | 0.00 | 0.00 | 0.00 | 84 | 1012.5 |
| 20260504213103 | 59 | 181 | 13.0 | 20.0 | 0.00 | 0.00 | 0.00 | 84 | 1012.5 |
| 20260504212603 | 60 | 180 | 10.4 | 17.4 | 0.00 | 0.00 | 0.00 | 84 | 1012.4 |
| 20260504212103 | 59 | 180 | 10.4 | 18.2 | 0.00 | 0.00 | 0.00 | 84 | 1012.4 |
| 20260504211604 | 59 | 175 | 13.0 | 20.0 | 0.00 | 0.00 | 0.00 | 84 | 1012.5 |
| 20260504211104 | 60 | 175 | 13.0 | 20.0 | 0.00 | 0.00 | 0.00 | 83 | 1012.5 |
| 20260504210604 | 60 | 174 | 12.2 | 20.0 | 0.00 | 0.00 | 0.00 | 83 | 1012.4 |
| 20260504210104 | 60 | 175 | 12.2 | 21.7 | 0.00 | 0.00 | 0.00 | 83 | 1012.4 |
| 20260504205604 | 60 | 178 | 10.4 | 21.7 | 0.00 | 0.00 | 0.00 | 83 | 1012.5 |
| 20260504204604 | 61 | 181 | 12.2 | 19.1 | 0.00 | 0.00 | 0.00 | 82 | 1012.5 |
| 20260504204104 | 61 | 181 | 11.3 | 19.1 | 0.00 | 0.00 | 0.00 | 82 | 1012.5 |
| 20260504203603 | 61 | 173 | 11.3 | 16.5 | 0.00 | 0.00 | 0.00 | 83 | 1012.5 |
| 20260504203104 | 60 | 176 | 11.3 | 14.8 | 0.00 | 0.00 | 0.00 | 83 | 1012.4 |
| 20260504202604 | 60 | 175 | 10.4 | 19.1 | 0.00 | 0.00 | 0.00 | 83 | 1012.5 |
| 20260504202104 | 60 | 183 | 13.9 | 21.7 | 0.00 | 0.00 | 0.00 | 83 | 1012.5 |
| 20260504201603 | 60 | 183 | 12.2 | 21.7 | 0.00 | 0.00 | 0.00 | 83 | 1012.5 |
| 20260504201125 | 60 | 180 | 11.3 | 19.1 | 0.00 | 0.00 | 0.00 | 83 | 1012.7 |
| 20260504200604 | 60 | 177 | 11.3 | 19.1 | 0.00 | 0.00 | 0.00 | 83 | 1012.6 |
| 20260504200103 | 60 | 172 | 10.4 | 19.1 | 0.00 | 0.00 | 0.00 | 83 | 1012.7 |
| 20260504195604 | 60 | 175 | 13.0 | 19.1 | 0.00 | 0.00 | 0.00 | 83 | 1012.7 |
| 20260504195104 | 60 | 172 | 13.9 | 21.7 | 0.00 | 0.00 | 0.00 | 82 | 1012.7 |
| 20260504194603 | 60 | 170 | 13.9 | 21.7 | 0.00 | 0.00 | 0.00 | 81 | 1012.8 |
| 20260504194104 | 60 | 177 | 11.3 | 20.9 | 0.00 | 0.00 | 0.00 | 82 | 1012.9 |
| 20260504193604 | 60 | 174 | 12.2 | 20.9 | 0.00 | 0.00 | 0.00 | 82 | 1012.9 |
| 20260504193103 | 60 | 179 | 10.4 | 18.2 | 0.00 | 0.00 | 0.00 | 82 | 1012.9 |
| 20260504192604 | 60 | 176 | 12.2 | 19.1 | 0.00 | 0.00 | 0.00 | 82 | 1013.0 |
| 20260504192104 | 60 | 174 | 13.9 | 20.0 | 0.00 | 0.00 | 0.00 | 81 | 1012.9 |
| 20260504191603 | 60 | 174 | 12.2 | 20.0 | 0.00 | 0.00 | 0.00 | 82 | 1013.0 |
| 20260504191104 | 60 | 173 | 12.2 | 20.0 | 0.00 | 0.00 | 0.00 | 82 | 1013.1 |
| 20260504190604 | 60 | 171 | 13.0 | 20.0 | 0.00 | 0.00 | 0.00 | 81 | 1013.2 |
| 20260504190104 | 60 | 172 | 11.3 | 20.0 | 0.00 | 0.00 | 0.00 | 82 | 1013.3 |
| 20260504185604 | 60 | 174 | 13.9 | 20.0 | 0.00 | 0.00 | 0.00 | 81 | 1013.4 |
| 20260504185104 | 61 | 176 | 13.0 | 20.0 | 0.00 | 0.00 | 0.00 | 80 | 1013.5 |
| 20260504184604 | 61 | 168 | 11.3 | 19.1 | 0.00 | 0.00 | 0.00 | 80 | 1013.5 |
| 20260504184103 | 61 | 173 | 13.0 | 19.1 | 0.00 | 0.00 | 0.00 | 80 | 1013.6 |
| 20260504183604 | 61 | 175 | 13.0 | 17.4 | 0.00 | 0.00 | 0.00 | 79 | 1013.7 |
| 20260504183125 | 61 | 177 | 9.6 | 17.4 | 0.00 | 0.00 | 0.00 | 80 | 1013.8 |
| 20260504182603 | 61 | 171 | 11.3 | 18.2 | 0.00 | 0.00 | 0.00 | 79 | 1013.7 |
| 20260504182105 | 62 | 170 | 11.3 | 18.2 | 0.00 | 0.00 | 0.00 | 79 | 1013.8 |
| 20260504181624 | 62 | 178 | 9.6 | 17.4 | 0.00 | 0.00 | 0.00 | 80 | 1013.9 |
| 20260504181104 | 61 | 169 | 10.4 | 19.1 | 0.00 | 0.00 | 0.00 | 81 | 1013.9 |
| 20260504180604 | 61 | 186 | 10.4 | 19.1 | 0.00 | 0.00 | 0.00 | 81 | 1014.0 |
| 20260504180104 | 61 | 183 | 12.2 | 20.9 | 0.00 | 0.00 | 0.00 | 80 | 1014.0 |
| 20260504175605 | 61 | 178 | 9.6 | 20.9 | 0.00 | 0.00 | 0.00 | 80 | 1014.1 |
| 20260504175104 | 61 | 173 | 9.6 | 17.4 | 0.00 | 0.00 | 0.00 | 81 | 1014.1 |
| 20260504174603 | 61 | 168 | 12.2 | 18.2 | 0.00 | 0.00 | 0.00 | 81 | 1014.2 |
| 20260504174104 | 61 | 179 | 11.3 | 18.2 | 0.00 | 0.00 | 0.00 | 81 | 1014.4 |
| 20260504173604 | 61 | 188 | 10.4 | 16.5 | 0.00 | 0.00 | 0.00 | 81 | 1014.4 |
| 20260504173104 | 61 | 169 | 11.3 | 17.4 | 0.00 | 0.00 | 0.00 | 81 | 1014.5 |
| 20260504172604 | 61 | 173 | 11.3 | 17.4 | 0.00 | 0.00 | 0.00 | 80 | 1014.5 |
| 20260504172104 | 61 | 171 | 11.3 | 17.4 | 0.00 | 0.00 | 0.00 | 81 | 1014.5 |
| 20260504171604 | 61 | 178 | 10.4 | 18.2 | 0.00 | 0.00 | 0.00 | 82 | 1014.6 |
| 20260504171124 | 61 | 175 | 10.4 | 18.2 | 0.00 | 0.00 | 0.00 | 82 | 1014.7 |
| 20260504170604 | 60 | 181 | 9.6 | 16.5 | 0.00 | 0.00 | 0.00 | 83 | 1014.7 |
| 20260504170105 | 60 | 180 | 9.6 | 17.4 | 0.00 | 0.00 | 0.00 | 82 | 1014.7 |
| 20260504160103 | 59 | 186 | 9.6 | 17.4 | 0.00 | 0.00 | 0.00 | 83 | 1015.3 |
| 20260504151104 | 59 | 185 | 8.7 | 16.5 | 0.00 | 0.00 | 0.00 | 82 | 1015.6 |
| 20260504150603 | 59 | 183 | 10.4 | 15.6 | 0.00 | 0.00 | 0.00 | 82 | 1015.7 |
| 20260504150104 | 59 | 180 | 11.3 | 17.4 | 0.00 | 0.00 | 0.00 | 82 | 1015.6 |
| 20260504141104 | 58 | 184 | 10.4 | 18.2 | 0.00 | 0.00 | 0.00 | 84 | 1015.8 |
| 20260504140604 | 58 | 180 | 9.6 | 18.2 | 0.00 | 0.00 | 0.00 | 84 | 1015.9 |
| 20260504140104 | 58 | 180 | 8.7 | 16.5 | 0.00 | 0.00 | 0.00 | 84 | 1016.0 |
| 20260504130624 | 58 | 198 | 8.7 | 16.5 | 0.00 | 0.00 | 0.00 | 81 | 1016.3 |
| 20260504130103 | 57 | 183 | 7.8 | 14.8 | 0.00 | 0.00 | 0.00 | 81 | 1016.4 |
| 20260504120124 | 56 | 205 | 6.1 | 13.0 | 0.00 | 0.00 | 0.00 | 79 | 1016.7 |
| 20260504110604 | 52 | 211 | 7.8 | 15.6 | 0.00 | 0.00 | 0.00 | 84 | 1017.0 |
| 20260504110103 | 52 | 218 | 10.4 | 15.6 | 0.00 | 0.00 | 0.00 | 84 | 1017.0 |
| 20260504100603 | 50 | 217 | 9.6 | 14.8 | 0.00 | 0.00 | 0.00 | 81 | 1016.9 |
| 20260504100103 | 50 | 216 | 9.6 | 15.6 | 0.00 | 0.00 | 0.00 | 81 | 1016.9 |
| 20260504090104 | 50 | 215 | 8.7 | 14.8 | 0.00 | 0.00 | 0.00 | 78 | 1016.8 |
| 20260504081603 | 51 | 224 | 9.6 | 13.9 | 0.00 | 0.00 | 0.00 | 81 | 1016.6 |
| 20260504081103 | 51 | 217 | 10.4 | 13.9 | 0.00 | 0.00 | 0.00 | 82 | 1016.6 |
| 20260504080604 | 51 | 226 | 10.4 | 14.8 | 0.00 | 0.00 | 0.00 | 82 | 1016.6 |
| 20260504070103 | 52 | 234 | 7.8 | 13.9 | 0.00 | 0.00 | 0.00 | 82 | 1016.2 |
| 20260504060125 | 52 | 239 | 7.8 | 12.2 | 0.00 | 0.00 | 0.00 | 83 | 1016.0 |
| 20260504050603 | 52 | 235 | 8.7 | 12.2 | 0.00 | 0.00 | 0.00 | 81 | 1015.8 |
| 20260504050103 | 52 | 235 | 7.8 | 13.0 | 0.00 | 0.00 | 0.00 | 81 | 1015.8 |
| 20260504045603 | 52 | 230 | 9.6 | 13.0 | 0.00 | 0.00 | 0.00 | 81 | 1015.8 |
| 20260504045103 | 52 | 229 | 8.7 | 12.2 | 0.00 | 0.00 | 0.00 | 81 | 1015.7 |
| 20260504044606 | 52 | 231 | 8.7 | 13.9 | 0.00 | 0.00 | 0.00 | 81 | 1015.7 |
| 20260504044103 | 52 | 229 | 8.7 | 13.9 | 0.00 | 0.00 | 0.00 | 80 | 1015.8 |
| 20260504043625 | 52 | 226 | 7.8 | 13.0 | 0.00 | 0.00 | 0.00 | 80 | 1015.8 |
| 20260504043103 | 52 | 217 | 8.7 | 13.0 | 0.00 | 0.00 | 0.00 | 79 | 1015.8 |
| 20260504042103 | 52 | 229 | 8.7 | 14.8 | 0.00 | 0.00 | 0.00 | 79 | 1015.7 |
| 20260504041603 | 52 | 229 | 10.4 | 14.8 | 0.00 | 0.00 | 0.00 | 78 | 1015.7 |
| 20260504041103 | 52 | 226 | 7.8 | 10.4 | 0.00 | 0.00 | 0.00 | 78 | 1015.7 |
| 20260504040604 | 52 | 221 | 7.8 | 11.3 | 0.00 | 0.00 | 0.00 | 78 | 1015.7 |
| 20260504040124 | 52 | 222 | 7.8 | 11.3 | 0.00 | 0.00 | 0.00 | 78 | 1015.6 |
| 20260504035603 | 52 | 226 | 7.0 | 12.2 | 0.00 | 0.00 | 0.00 | 79 | 1015.5 |
| 20260504035104 | 52 | 228 | 7.0 | 12.2 | 0.00 | 0.00 | 0.00 | 77 | 1015.5 |
| 20260504034103 | 52 | 223 | 7.0 | 10.4 | 0.00 | 0.00 | 0.00 | 75 | 1015.4 |
| 20260504033603 | 52 | 226 | 7.0 | 11.3 | 0.00 | 0.00 | 0.00 | 75 | 1015.4 |
| 20260504033103 | 52 | 221 | 6.1 | 11.3 | 0.00 | 0.00 | 0.00 | 75 | 1015.4 |
| 20260504032604 | 52 | 226 | 7.0 | 11.3 | 0.00 | 0.00 | 0.00 | 74 | 1015.4 |
| 20260504032103 | 52 | 230 | 8.7 | 11.3 | 0.00 | 0.00 | 0.00 | 74 | 1015.4 |
| 20260504031603 | 52 | 233 | 7.0 | 12.2 | 0.00 | 0.00 | 0.00 | 74 | 1015.4 |
| 20260504031103 | 52 | 238 | 7.0 | 12.2 | 0.00 | 0.00 | 0.00 | 74 | 1015.4 |
| 20260504030603 | 52 | 228 | 8.7 | 10.4 | 0.00 | 0.00 | 0.00 | 73 | 1015.4 |
| 20260504025603 | 52 | 232 | 7.0 | 11.3 | 0.00 | 0.00 | 0.00 | 72 | 1015.3 |
| 20260504025146 | 52 | 237 | 7.0 | 11.3 | 0.00 | 0.00 | 0.00 | 72 | 1015.3 |
| 20260504024603 | 53 | 240 | 7.8 | 11.3 | 0.00 | 0.00 | 0.00 | 70 | 1015.3 |
| 20260504024103 | 53 | 241 | 7.8 | 11.3 | 0.00 | 0.00 | 0.00 | 71 | 1015.4 |
| 20260504023604 | 53 | 237 | 7.0 | 11.3 | 0.00 | 0.00 | 0.00 | 71 | 1015.3 |
| 20260504023104 | 53 | 233 | 7.0 | 10.4 | 0.00 | 0.00 | 0.00 | 72 | 1015.3 |
| 20260504022624 | 53 | 234 | 7.0 | 11.3 | 0.00 | 0.00 | 0.00 | 73 | 1015.3 |
| 20260504022103 | 53 | 230 | 7.8 | 11.3 | 0.00 | 0.00 | 0.00 | 74 | 1015.3 |
| 20260504021604 | 53 | 224 | 7.8 | 11.3 | 0.00 | 0.00 | 0.00 | 74 | 1015.3 |
| 20260504021103 | 53 | 230 | 7.0 | 10.4 | 0.00 | 0.00 | 0.00 | 74 | 1015.3 |
| 20260504020604 | 53 | 231 | 7.0 | 10.4 | 0.00 | 0.00 | 0.00 | 74 | 1015.3 |
| 20260504020103 | 53 | 229 | 7.0 | 10.4 | 0.00 | 0.00 | 0.00 | 73 | 1015.3 |
| 20260504015603 | 53 | 231 | 7.0 | 10.4 | 0.00 | 0.00 | 0.00 | 72 | 1015.2 |
| 20260504015104 | 53 | 229 | 7.0 | 10.4 | 0.00 | 0.00 | 0.00 | 71 | 1015.2 |
| 20260504014603 | 53 | 226 | 7.0 | 9.6 | 0.00 | 0.00 | 0.00 | 72 | 1015.2 |
| 20260504014103 | 53 | 233 | 6.1 | 9.6 | 0.00 | 0.00 | 0.00 | 74 | 1015.1 |
| 20260504013603 | 53 | 229 | 6.1 | 9.6 | 0.00 | 0.00 | 0.00 | 74 | 1015.1 |
| 20260504013124 | 53 | 230 | 7.0 | 11.3 | 0.00 | 0.00 | 0.00 | 73 | 1015.1 |
| 20260504012604 | 54 | 225 | 7.0 | 11.3 | 0.00 | 0.00 | 0.00 | 73 | 1015.0 |
| 20260504012103 | 53 | 229 | 7.8 | 10.4 | 0.00 | 0.00 | 0.00 | 70 | 1015.0 |
| 20260504011604 | 53 | 228 | 6.1 | 9.6 | 0.00 | 0.00 | 0.00 | 72 | 1015.0 |
| 20260504011103 | 54 | 234 | 7.0 | 8.7 | 0.00 | 0.00 | 0.00 | 74 | 1014.9 |
| 20260504010603 | 54 | 234 | 5.2 | 9.6 | 0.00 | 0.00 | 0.00 | 71 | 1014.8 |
| 20260504005604 | 54 | 232 | 7.0 | 9.6 | 0.00 | 0.00 | 0.00 | 67 | 1014.5 |
| 20260504005103 | 54 | 234 | 5.2 | 7.8 | 0.00 | 0.00 | 0.00 | 69 | 1014.5 |